CAPE
1353 1455 1719 1860 1908 1854 1702 1654 1560 1680 2022 2156 2226 2370 2517 2579 2532 2482 2547 2656 2766 2882 2887 2521 2194 2039 1713 1202 1362 1564 1562 1655 1571 2054 1901 1950 1798 1765 1585 1831 1815 1426 1720
1383 1699 1731 1860 1933 1958 1844 1768 1736 1801 2115 2222 2248 2323 2372 2433 2478 2552 2636 2756 2936 3033 2728 2515 2299 2123 1644 1398 1331 1352 1458 1488 1575 1571 1844 1719 1819 1695 1706 1799 1678 1563 1957
1443 1775 1756 1833 1956 2005 1994 1967 2000 2078 2182 2250 2223 2258 2343 2427 2493 2536 2594 2713 2865 2964 2620 2373 2184 2123 1966 1777 1283 1264 1367 1415 1478 1452 1787 1267 1352 1672 1668 1694 1840 1874 1947
1527 1699 1843 1799 1901 1960 1934 1993 2098 2314 2296 2281 2192 2191 2335 2421 2475 2535 2550 2649 2846 2929 2566 2243 2100 2057 2183 1784 1460 1286 1343 1322 1333 1350 1160 1061 1194 1640 1278 1447 1744 1807 1900
1467 1623 1759 1879 1880 1875 1827 1925 2068 2250 2213 2234 2166 2227 2273 2401 2490 2482 2361 2570 2911 3024 2541 2252 2105 2477 1987 1626 1475 1292 1301 1212 1203 922 749 661 728 1113 992 1770 1971 2021 1918
1409 1482 1599 1803 1933 1919 1835 1870 2012 2106 1996 2036 2100 2224 2299 2374 2396 2244 2077 2485 2907 2969 2711 2681 2919 2252 1770 1358 1257 1249 1196 1096 674 394 352 622 246 657 1336 1871 1741 1691 1667
1263 1306 1349 1560 1802 1995 2033 1931 1906 1955 1851 1898 2046 2079 2222 2418 2435 2134 2061 2479 2924 3023 3045 2830 2457 1934 1550 1294 1138 1179 1120 1038 485 219 211 524 236 962 1346 1875 1487 1593 1701
1305 1303 1321 1387 1698 1914 2066 1919 1756 1791 1762 1812 1913 1921 2109 2149 2136 1998 1983 2119 2550 2856 2522 2292 2057 1764 1341 1117 1062 997 1036 1069 400 114 73 136 436 1113 1185 1910 1585 1692 1688
1463 1262 1228 1391 1655 1826 1944 1962 1759 1699 1663 1729 1824 1860 1914 1830 1763 1794 1851 1907 2336 2426 2149 2108 1913 1378 1084 1012 930 875 893 1075 365 145 5 0 60 1127 1505 2100 1818 1564 1605
1457 1283 1160 1202 1407 1499 1574 1716 1760 1682 1612 1629 1728 1786 1738 1689 1671 1618 1621 1760 2134 2236 2113 2039 1937 1546 1094 871 808 789 855 830 415 165 27 101 285 1248 1721 2196 2008 1783 1639
1815 1361 1094 1147 1194 1241 1297 1432 1547 1678 1642 1521 1554 1606 1524 1478 1514 1562 1512 1628 1901 2155 2029 2008 1926 1715 1365 895 729 661 738 449 314 272 103 240 396 1349 1724 2082 2031 1774 1707
2399 1859 1240 1130 1164 1045 1323 1424 1406 1485 1539 1391 1388 1419 1529 1470 1452 1636 1582 1507 1720 1841 1942 1913 1794 1642 1238 611 490 520 404 398 250 301 224 251 712 992 1333 1960 1968 1834 1673
1889 2264 1809 1265 1046 1066 1240 1062 1124 1354 1297 1436 1676 1641 1583 1385 1490 1538 1465 1335 1371 1440 1547 1534 1399 1219 965 528 356 302 239 285 219 183 264 258 654 1241 1760 2130 2079 1914 1670
0 0 856 1555 1281 1002 1044 937 935 1023 959 1108 1281 1403 1363 1255 1233 1401 1449 1267 1147 1326 1519 1415 1370 1321 995 603 366 265 261 252 224 116 48 336 451 1555 1937 2147 2241 2047 1795
0 758 1398 1712 1575 1216 1206 994 721 932 968 984 1091 1252 1258 1250 1247 1329 1344 1151 1012 990 1176 1307 1351 1137 1021 758 506 279 277 270 242 132 54 164 490 1066 1640 1647 1806 1857 1771
0 0 0 11 733 1522 1285 1181 1006 840 845 691 851 951 1178 1363 1315 1307 1423 1107 1010 831 939 1005 1191 1096 1033 861 684 391 371 377 268 178 87 53 74 61 392 906 1959 2066 1834
0 0 0 0 0 0 0 0 0 140 597 631 719 1102 923 1138 1133 1140 1195 1281 1214 1037 878 910 824 880 905 725 678 470 441 392 326 197 115 55 36 0 0 519 1247 1792 1877
0 0 0 0 0 0 0 0 0 0 0 0 1 23 170 761 1156 907 814 986 1197 915 913 974 1056 1000 900 722 693 456 475 408 333 243 136 65 20 0 0 75 640 921 1507
0 0 0 0 0 0 0 0 0 0 0 0 0 0 0 2 22 37 26 539 450 547 777 867 917 894 882 763 660 566 304 356 367 341 222 93 18 4 0 0 0 348 786
0 0 0 0 0 0 0 0 0 0 0 0 0 0 0 0 0 4 0 0 5 276 352 539 925 754 824 719 511 465 249 300 310 343 303 145 47 2 0 0 0 0 214
0 0 0 0 0 0 0 0 0 0 0 0 0 0 0 0 0 0 1 1 35 113 46 408 808 789 522 142 166 101 78 86 175 299 291 167 61 5 0 0 0 0 0
0 0 0 0 0 0 0 0 0 0 0 0 0 0 0 0 0 0 0 0 10 1 154 151 619 665 458 119 340 34 254 178 92 126 212 201 141 68 2 0 0 0 0
0 0 0 0 0 0 0 0 0 0 0 0 0 0 0 0 0 0 0 0 0 1 4 27 321 285 346 200 262 120 80 141 54 48 140 200 128 97 43 9 0 0 0
0 0 0 0 0 0 0 0 0 0 0 0 0 0 0 0 0 0 0 0 0 0 0 0 0 204 21 10 132 74 101 0 24 11 48 174 128 135 142 47 21 1 0
0 0 0 0 0 0 0 0 0 0 0 0 0 0 0 0 0 0 0 0 1 2 2 4 0 0 267 58 88 24 37 3 30 0 3 48 132 173 112 104 70 33 1
0 0 0 0 0 0 0 0 0 0 0 0 0 0 0 0 0 0 0 0 1 2 2 3 4 1 41 305 101 33 8 15 8 14 0 0 61 149 176 41 22 23 1
CIN
-493 -460 -375 -325 -308 -328 -381 -432 -437 -389 -303 -236 -176 -138 -110 -87 -75 -59 -21 -2 0 0 0 0 0 0 -5 -32 -31 -30 -29 -19 -18 -1 -2 0 0 0 0 0 0 0 0
-533 -435 -394 -338 -302 -300 -337 -370 -393 -361 -276 -227 -184 -140 -124 -104 -77 -49 -20 -1 0 0 0 0 0 0 -10 -33 -44 -44 -34 -27 -12 -6 -2 0 0 0 0 0 -1 0 0
-494 -400 -378 -347 -309 -286 -280 -304 -321 -301 -257 -217 -189 -146 -119 -100 -76 -51 -26 -2 0 0 0 0 0 0 -2 -13 -57 -57 -40 -20 -6 -11 -5 -16 -7 -1 -1 -3 0 0 0
-485 -419 -350 -340 -317 -295 -288 -272 -266 -245 -233 -205 -194 -161 -113 -97 -79 -53 -28 -6 0 0 0 0 0 0 0 -12 -41 -51 -53 -28 -22 -16 -25 -31 -14 -4 -13 -9 -2 0 0
-463 -431 -388 -334 -312 -307 -298 -258 -234 -220 -235 -205 -190 -152 -119 -90 -76 -57 -47 -14 0 0 0 0 0 0 -3 -14 -36 -60 -55 -38 -31 -61 -89 -109 -98 -64 -66 -14 -2 0 0
-456 -443 -417 -361 -307 -288 -295 -269 -237 -224 -245 -224 -193 -149 -114 -88 -77 -77 -75 -24 0 0 0 0 0 -2 -14 -44 -52 -69 -61 -50 -102 -165 -168 -134 -213 -123 -68 -9 -12 -7 -5
-446 -426 -409 -339 -289 -260 -246 -257 -250 -239 -247 -235 -197 -166 -116 -79 -69 -88 -81 -29 -1 0 0 -1 -2 -18 -40 -61 -69 -65 -62 -69 -174 -270 -250 -172 -228 -89 -34 -6 -14 -14 -7
-426 -437 -399 -350 -264 -219 -194 -223 -245 -246 -245 -228 -194 -179 -141 -110 -98 -100 -89 -58 -15 0 -2 -9 -19 -33 -63 -85 -73 -77 -73 -75 -195 -326 -332 -303 -190 -56 -34 -5 -25 -13 -10
-398 -432 -422 -365 -291 -245 -210 -187 -217 -229 -231 -216 -198 -186 -167 -166 -142 -127 -98 -82 -32 -12 -25 -21 -33 -65 -95 -90 -81 -94 -104 -81 -183 -274 -192 0 -356 -46 -21 -3 -6 -14 -12
-350 -389 -407 -355 -297 -272 -255 -236 -215 -212 -222 -223 -215 -209 -201 -201 -180 -156 -129 -89 -44 -30 -28 -27 -30 -56 -89 -109 -87 -101 -115 -114 -161 -226 -377 -294 -206 -38 -11 -1 -2 -8 -10
-254 -311 -376 -352 -303 -285 -269 -231 -210 -197 -210 -219 -207 -196 -204 -205 -209 -179 -167 -126 -66 -37 -39 -30 -31 -38 -56 -93 -94 -115 -121 -167 -189 -194 -256 -219 -186 -37 -6 -2 -3 -9 -9
-138 -195 -296 -332 -315 -292 -235 -208 -193 -170 -185 -230 -207 -172 -144 -158 -182 -152 -164 -153 -97 -70 -41 -33 -30 -40 -60 -127 -120 -107 -163 -185 -197 -188 -224 -220 -144 -88 -32 -7 -11 -8 -9
-137 -133 -198 -288 -343 -312 -229 -266 -239 -167 -172 -159 -136 -136 -128 -156 -148 -136 -141 -156 -142 -123 -85 -58 -67 -67 -103 -156 -152 -150 -157 -185 -212 -215 -205 -215 -164 -67 -19 -15 -17 -8 -12
0 0 -222 -237 -249 -297 -242 -238 -226 -200 -202 -177 -163 -148 -161 -167 -161 -147 -128 -130 -114 -91 -62 -70 -54 -58 -88 -139 -161 -163 -171 -187 -227 -241 -291 -206 -213 -52 -12 -5 -1 -4 -5
0 -287 -222 -169 -175 -217 -188 -209 -238 -173 -166 -162 -137 -135 -136 -142 -141 -125 -131 -145 -144 -110 -81 -66 -56 -75 -83 -107 -144 -176 -183 -191 -222 -262 -297 -228 -175 -80 -23 -4 -2 -2 -3
0 0 0 -41 -315 -118 -121 -136 -150 -159 -153 -123 -115 -81 -50 -54 -95 -108 -92 -132 -136 -153 -102 -80 -61 -59 -68 -83 -112 -164 -169 -180 -208 -254 -278 -291 -229 -236 -154 -60 -1 -4 -6
0 0 0 0 0 0 0 0 -25 -280 -113 -76 -49 -8 -25 -15 -45 -62 -68 -85 -113 -110 -114 -75 -61 -53 -56 -78 -104 -165 -154 -167 -204 -235 -268 -298 -270 0 -14 -126 -36 -9 -7
0 0 0 0 0 0 0 0 0 0 0 0 0 -263 -83 -28 -14 -38 -57 -33 -38 -67 -78 -70 -53 -47 -50 -73 -66 -143 -134 -154 -202 -228 -255 -299 -337 0 0 -176 -71 -48 -17
0 0 0 0 0 0 0 0 0 0 0 0 0 0 0 -100 -222 -134 -213 -64 -97 -53 -33 -57 -59 -65 -48 -58 -67 -75 -159 -141 -159 -188 -231 -281 -352 -253 0 0 0 -103 -47
0 0 0 0 0 0 0 0 0 0 0 0 0 0 0 0 0 -61 0 0 -231 -63 -7 -32 -36 -71 -78 -84 -78 -78 -154 -142 -143 -174 -211 -258 -323 -184 0 0 0 0 -121
0 0 0 0 0 0 0 0 0 0 0 0 0 0 0 0 0 0 0 0 -38 -1 -30 -1 -31 -42 -87 -185 -127 -139 -195 -208 -140 -138 -180 -235 -308 -257 0 0 0 0 -1
0 0 0 0 0 0 0 0 0 0 0 0 0 0 0 0 0 0 0 0 0 0 -10 -6 -3 -7 -49 -141 -62 -82 -17 -71 -150 -166 -149 -218 -262 -300 -102 0 0 0 0
0 0 0 0 0 0 0 0 0 0 0 0 0 0 0 0 0 0 0 0 0 -1 0 -25 -27 -40 -21 -35 -31 -34 -19 -18 -120 -232 -169 -175 -263 -280 -319 -420 0 0 0
0 0 0 0 0 0 0 0 0 0 0 0 0 0 0 0 0 0 0 0 0 0 0 0 0 -36 -68 -16 -1 -29 -8 -33 -17 -33 -120 -139 -198 -240 -236 -331 -409 -214 0
0 0 0 0 0 0 0 0 0 0 0 0 0 0 0 0 0 0 0 0 -1 -1 0 0 0 0 -21 -56 -32 -23 -40 -10 -8 -3 -12 -67 -110 -173 -248 -271 -300 -345 -142
0 0 0 0 0 0 0 0 0 0 0 0 0 0 0 0 0 0 0 0 -1 0 0 0 0 0 -14 -1 -49 -90 -127 -88 -49 -85 0 -34 -28 -114 -174 -295 -323 -328 -125
Wind_Speed
5 9 11 10 8 7 7 12 15 16 16 16 16 16 19 19 18 18 16 15 14 15 15 15 14 12 10 9 9 8 8 7 7 8 10 12 13 15 15 12 11 11 14
10 9 13 12 10 8 7 9 13 15 16 16 17 16 16 17 18 17 16 15 14 15 16 16 15 13 10 9 7 7 8 8 7 8 10 11 13 14 13 12 11 11 12
9 7 10 11 11 10 7 8 12 14 15 16 16 16 16 17 17 16 16 15 13 14 16 15 14 13 11 9 7 6 7 8 8 7 10 5 5 12 12 10 12 13 12
10 8 7 9 11 11 9 7 8 12 14 14 15 16 16 17 17 17 16 14 14 14 15 14 13 12 10 8 7 7 6 8 7 8 4 5 7 9 11 12 10 13 13
8 9 9 11 10 11 11 9 7 8 12 13 13 14 15 16 17 17 15 14 14 13 13 13 11 10 9 8 8 8 8 8 7 6 5 5 5 9 10 15 16 14 13
6 8 9 13 13 12 12 11 10 9 9 11 12 13 14 15 16 16 14 14 14 14 13 13 13 12 11 10 9 8 8 8 7 6 4 7 6 10 10 12 13 14 12
6 5 8 10 10 12 13 13 12 11 10 11 11 12 12 13 14 15 14 14 14 14 13 11 11 11 10 10 9 8 7 7 5 5 5 5 6 11 7 9 11 12 13
9 7 7 10 9 9 9 10 10 10 10 10 10 11 13 12 13 14 14 13 11 11 10 11 11 10 10 10 9 8 8 8 6 5 5 4 6 9 10 11 12 13 12
6 6 6 8 10 12 12 10 10 10 11 10 11 11 12 12 11 13 13 14 13 12 11 10 10 10 10 9 9 8 8 8 5 4 4 4 9 13 15 12 12 13 13
3 5 5 4 5 5 6 11 12 11 11 12 12 13 13 13 12 12 12 12 12 13 11 11 11 11 10 10 8 7 7 8 5 5 4 4 11 16 14 12 14 14 13
2 3 4 4 4 5 4 5 7 11 12 11 10 10 9 6 7 8 10 11 12 11 11 11 11 10 9 9 9 9 7 3 5 4 3 8 10 14 14 11 13 13 13
4 5 5 6 6 4 3 4 4 4 5 6 5 4 4 4 4 6 7 11 12 12 11 10 9 9 8 4 3 7 3 4 4 4 4 10 12 16 13 10 13 14 14
4 3 7 6 6 7 5 3 2 3 4 5 7 6 8 6 4 4 2 4 5 9 5 6 6 4 6 4 4 4 5 5 3 3 5 10 13 15 15 11 12 13 13
4 6 7 8 7 6 3 3 3 3 3 5 6 7 6 4 6 6 5 4 3 3 6 6 4 7 6 6 6 6 6 5 4 3 5 11 11 13 13 13 14 15 14
3 2 1 5 5 5 5 3 3 3 4 4 4 7 6 6 8 6 6 4 4 4 5 6 7 8 9 7 6 7 7 7 7 4 3 9 10 10 10 13 14 16 15
6 7 7 7 3 4 3 1 2 3 3 1 1 3 6 4 5 5 5 5 5 6 5 6 8 9 8 7 8 8 8 7 7 6 4 5 11 10 10 13 15 17 17
7 7 8 8 7 7 6 5 3 2 3 3 2 4 4 6 5 5 5 5 6 5 7 5 5 5 6 5 8 8 8 8 7 7 6 5 5 10 8 12 11 14 15
8 9 9 7 9 8 7 5 4 5 4 3 2 4 7 9 5 3 2 5 3 4 5 7 8 8 8 8 8 6 7 7 9 8 7 7 6 4 6 9 9 10 13
8 9 11 10 11 9 7 5 5 7 5 4 4 5 6 8 9 4 6 5 2 3 4 6 7 8 7 8 9 7 6 7 9 8 9 8 8 6 4 8 10 10 11
10 11 11 10 11 8 5 4 4 4 4 4 4 6 8 8 11 8 6 9 7 9 8 6 9 8 7 9 7 7 6 7 8 8 10 8 8 7 6 6 5 6 11
13 14 13 12 12 9 5 4 4 4 3 3 4 6 6 7 9 9 5 5 8 17 12 11 8 10 7 4 3 3 4 5 7 8 7 7 8 8 7 6 5 4 5
14 14 14 12 12 10 6 4 2 2 3 2 4 5 6 7 8 8 8 5 6 7 14 19 12 7 4 7 4 0 5 4 5 6 5 7 9 6 8 8 7 7 6
15 14 13 12 10 9 8 4 3 2 2 3 5 3 5 5 4 5 5 5 6 5 8 7 6 8 5 2 8 5 2 5 1 2 10 8 8 7 7 8 9 8 8
12 12 13 13 13 11 11 8 9 4 3 3 6 7 6 6 5 4 5 6 7 6 6 7 7 10 9 11 5 7 13 5 2 6 3 8 6 9 10 8 8 8 9
10 11 10 11 12 13 13 12 8 7 4 5 6 9 9 6 5 7 5 5 6 6 7 8 10 9 9 13 12 7 13 8 10 8 10 6 4 9 8 9 9 8 9
9 10 11 13 13 14 13 12 10 9 10 8 8 8 7 7 8 6 7 6 6 7 7 7 9 10 10 12 10 11 10 12 12 9 10 11 10 6 9 8 9 9 8
Wind_Direction
195 161 163 165 168 165 152 126 126 125 123 124 124 122 124 126 128 128 132 136 138 140 139 135 136 125 119 103 91 91 97 119 117 112 117 128 129 127 126 125 122 122 127
138 158 161 164 164 157 147 134 132 132 131 131 130 129 126 127 128 130 133 134 138 140 141 142 145 143 137 116 105 110 112 116 112 119 123 131 134 132 133 132 132 134 131
140 151 166 166 158 150 151 151 142 139 138 137 136 137 137 134 134 133 135 138 141 144 150 152 150 147 140 134 140 131 128 120 122 127 118 124 134 143 146 136 135 134 137
145 151 166 174 163 156 155 162 158 147 143 144 144 143 144 142 141 141 141 144 147 151 155 155 153 150 140 146 156 150 151 124 132 118 127 131 161 145 131 154 151 146 149
155 162 166 171 169 163 161 163 166 157 148 151 150 148 148 148 146 146 146 147 151 153 154 153 151 141 139 151 162 166 152 137 127 124 135 154 154 154 178 164 164 163 158
159 168 170 170 170 169 167 171 173 169 161 157 156 155 155 153 152 151 152 154 157 158 161 162 159 153 154 163 165 174 154 143 122 145 165 189 177 181 207 165 163 161 166
166 171 164 178 178 176 175 177 179 175 174 169 166 162 161 159 158 158 159 162 163 165 165 162 159 162 163 167 169 176 162 161 149 159 183 193 197 193 164 150 173 174 171
168 162 166 177 180 182 182 181 183 176 179 180 175 172 168 171 170 168 167 169 168 165 163 164 164 169 171 172 173 178 164 179 160 168 186 192 205 185 173 186 180 178 176
163 156 168 178 186 181 180 187 185 184 181 186 186 185 182 177 181 177 178 174 170 173 173 174 172 172 173 177 171 176 169 189 172 188 193 193 212 200 197 197 186 183 179
160 157 166 173 177 184 195 185 183 186 186 194 196 194 192 182 185 185 183 182 180 177 181 181 181 179 181 181 171 179 186 183 185 210 221 214 224 208 200 197 193 187 185
185 200 164 176 193 190 191 205 192 187 188 199 209 206 196 204 187 186 189 187 188 189 184 188 186 186 185 191 175 181 206 186 187 221 216 228 211 207 208 200 192 191 192
221 219 191 187 190 192 184 173 191 210 201 192 188 209 213 227 202 192 193 191 191 194 194 192 194 189 182 181 189 183 219 222 194 215 235 231 215 219 217 207 194 193 195
232 205 206 199 184 178 199 172 168 192 209 206 196 193 208 217 220 203 201 208 204 195 190 197 193 202 200 178 186 190 208 239 211 213 244 241 229 214 210 222 203 201 198
204 242 227 187 183 184 167 188 177 183 193 213 214 204 199 205 219 213 211 190 194 196 196 191 199 204 206 200 185 201 207 217 232 224 234 229 223 215 219 220 206 203 201
101 325 228 155 170 176 194 176 182 216 203 203 207 215 208 210 220 215 213 181 177 180 196 196 200 211 214 209 198 201 212 217 223 219 223 222 205 209 226 224 233 216 205
111 86 66 57 72 133 104 107 189 199 176 343 334 284 244 232 221 203 201 206 195 181 190 203 206 212 216 211 212 206 214 218 219 214 214 218 223 221 219 229 232 219 212
101 104 92 82 68 67 69 60 50 316 359 81 283 313 270 246 240 235 230 214 210 194 184 186 203 215 219 220 219 209 209 217 210 210 212 214 227 238 222 225 231 215 211
90 73 59 57 66 59 55 52 41 48 45 39 310 280 308 290 274 246 287 269 261 228 208 211 203 203 216 217 227 217 211 211 210 206 205 207 209 221 215 218 222 220 203
62 63 54 39 38 41 37 42 53 50 39 36 38 24 354 350 289 273 236 248 256 268 239 220 214 202 213 221 225 217 209 213 214 205 206 209 207 202 199 221 220 216 209
50 54 51 40 31 18 18 21 45 80 44 20 26 30 23 13 4 325 267 280 285 314 265 240 228 214 206 211 221 229 214 211 215 206 207 206 205 205 197 194 206 220 212
44 49 46 35 21 27 9 359 9 13 347 40 49 21 31 8 354 346 360 341 254 233 259 250 234 222 212 181 169 241 235 233 231 216 209 208 202 201 199 193 196 206 207
33 36 29 27 22 16 15 3 347 298 299 351 40 7 31 15 349 346 337 322 278 296 295 260 236 231 226 182 191 163 257 233 234 240 242 220 213 202 204 197 192 201 196
33 25 27 16 8 8 0 350 313 311 9 20 3 351 355 342 336 305 297 294 289 263 264 278 244 228 235 234 209 170 276 243 315 210 230 230 208 210 210 200 195 200 202
29 32 18 15 2 4 2 9 27 20 346 347 322 314 328 327 317 313 309 312 308 304 292 285 285 249 228 234 270 204 209 142 95 308 282 239 220 216 216 209 203 203 203
24 21 22 14 0 357 357 5 2 347 320 323 322 316 321 325 323 315 300 295 306 310 300 290 286 273 244 233 221 200 211 191 209 204 267 295 246 228 217 212 203 208 208
21 18 16 13 3 353 351 355 341 336 337 338 327 321 324 322 322 316 315 309 296 288 287 294 294 292 275 231 227 211 201 193 195 204 216 246 242 236 215 201 204 206 204